[[{"header":{"parameterUnit":"m.s-1","parameterCategory":1,"la1":30.2991,"la2":30.254,"lo1":-89.0895,"lo2":-89.0444,"dx":0.0017,"dy":0.0017,"nx":28,"ny":28,"refTime":"2023-01-22T03:00:00:Z","depth":0,"parameterNumber":2,"parameterNumberName":"U-component_of_WINDS"},"data":[0,0,0,0,0,0,0,0,0,0,0,0,0,0,0,0,0,0,0,0,0,0,0,0,0,0,0,0,0,0,0,0,0,0,0,0,0,0,0,0,0,0,0,0,0,0,0,0,0,0,0,0,0,0,0,0,0,0,1.4695,1.4695,0,1.4728,1.4728,1.4729,1.4742,1.4742,1.4742,1.4742,1.4775,1.4776,1.4777,0,0,0,0,0,0,0,0,0,0,0,0,0,1.4644,1.4644,1.4695,1.4695,1.4695,1.4728,1.4728,1.4729,1.4742,1.4742,1.4742,1.4742,1.4775,1.4776,1.4777,0,0,0,0,0,0,0,0,0,0,0,0,0,1.467,1.4645,1.4694,1.4706,1.4707,1.4728,1.4728,1.4729,1.4742,1.4742,1.4742,1.4742,1.4775,1.4776,1.4778,1.4789,0,0,1.4782,1.4783,0,0,0,0,0,0,0,0,1.4669,1.4672,1.4704,1.4705,1.4707,1.4731,1.4723,1.4749,1.4742,1.4729,1.4742,1.4742,1.4761,1.4763,1.477,1.479,1.4792,1.4782,1.4783,1.4784,1.4784,0,0,0,0,0,0,0,1.4667,1.4671,1.4708,1.4704,1.4706,1.471,1.4713,1.4728,1.4745,1.473,1.4731,1.4735,1.4761,1.4768,1.4771,1.4792,1.4782,1.4783,1.4784,1.4785,1.4826,1.4826,0,0,0,0,0,0,1.4663,1.4669,1.4707,1.4709,1.4687,1.4711,1.4715,1.4723,1.4745,1.4748,1.4735,1.4735,1.4766,1.4769,1.4772,1.4787,1.4784,1.4785,1.4786,1.4826,1.4826,1.4826,0,0,0,0,0,0,1.4662,1.4666,1.4705,1.4689,1.4694,1.4712,1.4721,1.4724,1.4731,1.4749,1.4752,1.4739,1.4766,1.477,1.4785,1.4788,1.4786,1.4787,1.4825,1.4826,1.4826,1.4817,0,0,0,0,0,0,1.466,1.4666,1.467,1.4689,1.4695,1.4717,1.4721,1.4725,1.4733,1.4734,1.4753,1.4756,1.4766,1.4783,1.4786,1.479,1.4788,1.4825,1.4825,1.4826,1.4817,1.4817,1.4817,0,0,0,0,0,1.4658,1.4666,1.467,1.4674,1.4701,1.4718,1.4721,1.4733,1.4733,1.4738,1.475,1.4755,1.4788,1.4784,1.4788,1.4793,1.4825,1.4825,1.4826,1.4817,1.4817,1.4817,0,0,0,0,0,0,1.4645,1.4668,1.4673,1.4687,1.47,1.472,1.4726,1.4732,1.4745,1.4745,1.476,1.4764,1.4778,1.4787,1.4783,1.4806,1.4807,1.4808,1.4799,1.4799,1.4799,1.4796,1.4789,0,0,0,0,0,1.4644,1.4656,1.4675,1.4686,1.4692,1.4708,1.4716,1.4724,1.4738,1.4744,1.4756,1.477,1.4784,1.4792,1.4805,1.4819,1.4824,1.4825,1.4825,1.4825,1.4825,1.4835,1.4835,1.4828,1.4828,1.4828,0,0,1.4642,1.4656,1.4662,1.4683,1.4695,1.4707,1.4712,1.4725,1.4734,1.4745,1.476,1.4771,1.4787,1.4802,1.4809,1.481,1.4829,1.4825,1.4825,1.4826,1.4835,1.4836,1.4836,1.4828,1.4828,1.4828,0,0,1.4643,1.4655,1.4665,1.4677,1.4694,1.4705,1.4707,1.4726,1.4734,1.4749,1.4759,1.477,1.4793,1.4804,1.4813,1.4822,1.4828,1.4826,1.4825,1.4834,1.4835,1.4835,1.4838,1.4839,1.4827,1.4827,1.4827,0,1.4637,1.4656,1.4669,1.4681,1.4691,1.4703,1.4714,1.4724,1.4745,1.4752,1.4753,1.4782,1.4794,1.4813,1.4815,1.4822,1.4825,1.4823,1.4833,1.4834,1.4835,1.4838,1.4839,1.4826,1.4826,1.4826,1.4826,0,1.4648,1.4661,1.4668,1.4688,1.4698,1.471,1.4725,1.4734,1.4742,1.4753,1.477,1.4785,1.4802,1.4807,1.4814,1.4827,1.4827,1.4831,1.4832,1.4835,1.4838,1.484,1.4826,1.4826,1.4826,1.4826,0,0,1.4641,1.467,1.4672,1.4682,1.4703,1.4713,1.4726,1.4743,1.4751,1.4766,1.4777,1.4797,1.4801,1.4811,1.482,1.4828,1.4834,1.4831,1.4831,1.4831,1.485,1.4846,1.4848,1.4839,1.4839,1.4839,1.4848,0,1.4645,1.4668,1.4681,1.4698,1.4711,1.4724,1.4735,1.4749,1.4761,1.4773,1.4786,1.48,1.4804,1.481,1.4819,1.4832,1.4838,1.4831,1.485,1.485,1.4844,1.4849,1.4846,1.4853,1.485,1.485,1.485,0,1.4652,1.4667,1.4686,1.4707,1.4713,1.4722,1.474,1.4752,1.4769,1.4777,1.4789,1.4799,1.4814,1.4815,1.4836,1.4831,1.4839,1.4847,1.4848,1.4849,1.485,1.4851,1.4856,1.4857,1.4852,1.4852,1.4852,0,1.4645,1.467,1.4684,1.4693,1.4717,1.4724,1.4735,1.4752,1.4762,1.4778,1.4785,1.4802,1.4811,1.4825,1.4839,1.4838,1.4859,1.4861,1.4866,1.4865,1.4868,1.4868,1.4874,1.4875,1.4875,1.4875,1.4875,0,1.4647,1.4658,1.4682,1.469,1.4704,1.472,1.4732,1.4744,1.476,1.4772,1.4784,1.4795,1.4814,1.4828,1.4839,1.4855,1.4859,1.4866,1.4869,1.4865,1.4864,1.487,1.4869,1.4875,1.4875,1.4875,1.4875,0,1.4641,1.4657,1.4674,1.4696,1.4702,1.4711,1.4731,1.4741,1.4753,1.4768,1.4773,1.4793,1.4809,1.4826,1.4848,1.4856,1.4872,1.4876,1.4866,1.4867,1.4871,1.4871,1.4881,1.4884,1.4883,1.4883,1.4883,0,1.4641,1.465,1.4674,1.4683,1.4694,1.4708,1.4719,1.4735,1.4746,1.4768,1.4775,1.4793,1.4808,1.4835,1.4851,1.4869,1.4873,1.4876,1.4876,1.4872,1.4873,1.4872,1.4873,1.4875,1.4875,1.4875,1.4875,0,1.464,1.4648,1.4662,1.468,1.4693,1.4708,1.4723,1.473,1.475,1.4761,1.4779,1.4791,1.4815,1.4833,1.4853,1.4864,1.4873,1.4875,1.4877,1.4872,1.4866,1.487,1.4865,1.4874,1.4875,1.4875,1.4875,1.4875,1.4637,1.4646,1.4664,1.4681,1.4694,1.4709,1.4719,1.4734,1.4749,1.4769,1.4779,1.4797,1.4816,1.4843,1.4855,1.487,1.4872,1.4875,1.4876,1.4876,1.4875,1.4865,1.4874,1.4874,1.4874,1.4874,1.4874,0,1.4636,1.4649,1.4664,1.4686,1.4699,1.4707,1.4725,1.4735,1.4751,1.4768,1.4783,1.4804,1.4822,1.4841,1.486,1.4869,1.4873,1.4873,1.4872,1.4875,1.4872,1.4868,1.4869,1.4869,1.4869,1.4869,1.4869,1.4869,1.4637,1.4653,1.4663,1.4687,1.47,1.4718,1.4727,1.4741,1.4755,1.4778,1.4793,1.4805,1.4823,1.4844,1.4861,1.4867,1.4873,1.4872,1.4878,1.4875,1.4875,1.4875,1.4872,1.4873,1.4873,1.4879,1.4879,1.4879]},{"header":{"parameterUnit":"m.s-1","parameterCategory":1,"la1":30.2991,"la2":30.254,"lo1":-89.0895,"lo2":-89.0444,"dx":0.0017,"dy":0.0017,"nx":28,"ny":28,"refTime":"2023-01-22T03:00:00:Z","depth":0,"parameterNumber":3,"parameterNumberName":"V-component_of_WINDS"},"data":[0,0,0,0,0,0,0,0,0,0,0,0,0,0,0,0,0,0,0,0,0,0,0,0,0,0,0,0,0,0,0,0,0,0,0,0,0,0,0,0,0,0,0,0,0,0,0,0,0,0,0,0,0,0,0,0,0,0,-6.2721,-6.2722,0,-6.287,-6.2871,-6.2873,-6.2821,-6.2818,-6.2815,-6.2812,-6.2957,-6.2963,-6.297,0,0,0,0,0,0,0,0,0,0,0,0,0,-6.2384,-6.239,-6.272,-6.2722,-6.2724,-6.2869,-6.2871,-6.2873,-6.2822,-6.2818,-6.2814,-6.281,-6.2955,-6.2963,-6.2971,0,0,0,0,0,0,0,0,0,0,0,0,0,-6.2531,-6.2392,-6.272,-6.2716,-6.2717,-6.2869,-6.2871,-6.2874,-6.2823,-6.2818,-6.2813,-6.2808,-6.2952,-6.2962,-6.2972,-6.3134,0,0,-6.3004,-6.3008,0,0,0,0,0,0,0,0,-6.2523,-6.2543,-6.2715,-6.2717,-6.2718,-6.2822,-6.2806,-6.2961,-6.2824,-6.2783,-6.2812,-6.2806,-6.2915,-6.2928,-6.2967,-6.3141,-6.3147,-6.3005,-6.3011,-6.3015,-6.3018,0,0,0,0,0,0,0,-6.2512,-6.2536,-6.2779,-6.2717,-6.272,-6.2704,-6.272,-6.2835,-6.2874,-6.2786,-6.2782,-6.2801,-6.2915,-6.2957,-6.297,-6.3149,-6.3004,-6.3014,-6.302,-6.3024,-6.3462,-6.3467,0,0,0,0,0,0,-6.2502,-6.2528,-6.2774,-6.2784,-6.2607,-6.2715,-6.2732,-6.2794,-6.2873,-6.2881,-6.2805,-6.2798,-6.2942,-6.2958,-6.2975,-6.3169,-6.3015,-6.3025,-6.3031,-6.3456,-6.3463,-6.3469,0,0,0,0,0,0,-6.2495,-6.2525,-6.2768,-6.2655,-6.2685,-6.2726,-6.2795,-6.2799,-6.2841,-6.2888,-6.2894,-6.2841,-6.2939,-6.296,-6.3095,-6.3173,-6.303,-6.3039,-6.345,-6.3458,-6.3466,-6.356,0,0,0,0,0,0,-6.2486,-6.2523,-6.2587,-6.2657,-6.2691,-6.2889,-6.28,-6.2806,-6.286,-6.2852,-6.2923,-6.293,-6.2936,-6.308,-6.3105,-6.3185,-6.3047,-6.3443,-6.3454,-6.3463,-6.355,-6.357,-6.3587,0,0,0,0,0,-6.2474,-6.2605,-6.259,-6.262,-6.2772,-6.2894,-6.2913,-6.292,-6.2866,-6.293,-6.296,-6.2928,-6.3161,-6.3094,-6.3122,-6.3206,-6.3438,-6.3451,-6.3463,-6.3541,-6.3566,-6.3587,0,0,0,0,0,0,-6.254,-6.2615,-6.2598,-6.2757,-6.282,-6.2885,-6.2965,-6.2946,-6.3023,-6.3012,-6.3015,-6.3031,-6.317,-6.3201,-6.3126,-6.3367,-6.3291,-6.331,-6.3341,-6.3365,-6.3384,-6.3373,-6.3056,0,0,0,0,0,-6.2574,-6.2668,-6.2727,-6.2861,-6.2894,-6.2924,-6.2977,-6.2977,-6.3041,-6.3066,-6.3106,-6.3167,-6.3254,-6.3311,-6.3394,-6.3554,-6.3568,-6.3625,-6.3644,-6.3659,-6.3675,-6.3761,-6.3787,-6.3509,-6.3509,-6.3509,0,0,-6.2643,-6.2695,-6.2754,-6.2876,-6.2924,-6.302,-6.2947,-6.3051,-6.3121,-6.3081,-6.3212,-6.3243,-6.3311,-6.346,-6.3527,-6.349,-6.3755,-6.3675,-6.3687,-6.3694,-6.3776,-6.3803,-6.3826,-6.3517,-6.3516,-6.3514,0,0,-6.2818,-6.2868,-6.2985,-6.3036,-6.3111,-6.3131,-6.3159,-6.3227,-6.3247,-6.3379,-6.3351,-6.3433,-6.3583,-6.3633,-6.3677,-6.3872,-6.3845,-6.3898,-6.3996,-6.408,-6.4102,-6.4121,-6.419,-6.4215,-6.3913,-6.3914,-6.3914,0,-6.2894,-6.304,-6.3047,-6.3155,-6.3208,-6.3179,-6.3296,-6.3344,-6.3441,-6.3478,-6.3436,-6.3624,-6.3667,-6.3827,-6.3874,-6.3912,-6.3942,-6.389,-6.4099,-6.4118,-6.4136,-6.4202,-6.4228,-6.392,-6.3919,-6.3918,-6.3918,0,-6.3129,-6.323,-6.3315,-6.3413,-6.3476,-6.3588,-6.361,-6.3672,-6.3666,-6.3689,-6.3823,-6.3874,-6.3967,-6.4004,-6.3999,-6.4163,-6.4138,-6.4098,-6.4022,-6.4169,-6.423,-6.4255,-6.3928,-6.3926,-6.3924,-6.3923,0,0,-6.335,-6.3451,-6.3482,-6.3526,-6.3607,-6.3684,-6.3794,-6.3887,-6.394,-6.4007,-6.4098,-6.4226,-6.4189,-6.424,-6.424,-6.4313,-6.4463,-6.4264,-6.4265,-6.4299,-6.4646,-6.4676,-6.4705,-6.4446,-6.4451,-6.4455,-6.464,0,-6.3532,-6.3728,-6.3737,-6.3914,-6.4007,-6.398,-6.4075,-6.4133,-6.4158,-6.4238,-6.4263,-6.4354,-6.4299,-6.4329,-6.4401,-6.443,-6.4533,-6.4417,-6.4528,-6.4532,-6.4512,-6.4737,-6.4769,-6.4942,-6.4664,-6.4668,-6.4671,0,-6.377,-6.3849,-6.4036,-6.4104,-6.4143,-6.4228,-6.4314,-6.4392,-6.4457,-6.4469,-6.4526,-6.4515,-6.4624,-6.4545,-6.4695,-6.4616,-6.4661,-6.4682,-6.4689,-6.4699,-6.4611,-6.4753,-6.4997,-6.5023,-6.4709,-6.4706,-6.4703,0,-6.3913,-6.4064,-6.4196,-6.4234,-6.4317,-6.4377,-6.4414,-6.4474,-6.453,-6.4603,-6.4639,-6.4723,-6.4769,-6.4834,-6.4845,-6.4786,-6.4995,-6.4916,-6.5006,-6.5006,-6.5051,-6.5048,-6.5305,-6.5081,-6.5081,-6.508,-6.508,0,-6.4115,-6.423,-6.4261,-6.4342,-6.447,-6.4478,-6.4603,-6.4635,-6.4689,-6.4773,-6.4754,-6.4833,-6.4843,-6.4924,-6.4933,-6.5055,-6.5076,-6.5087,-6.5088,-6.5089,-6.5088,-6.5119,-6.5107,-6.5087,-6.5086,-6.5084,-6.5083,0,-6.4296,-6.4322,-6.4463,-6.453,-6.4549,-6.4641,-6.4696,-6.4772,-6.4794,-6.4902,-6.4927,-6.4961,-6.5055,-6.5073,-6.5183,-6.5189,-6.5335,-6.5324,-6.5314,-6.5313,-6.5401,-6.5393,-6.5688,-6.5726,-6.5477,-6.5479,-6.5481,0,-6.4424,-6.4512,-6.4589,-6.4646,-6.4686,-6.4777,-6.4834,-6.4845,-6.4904,-6.4985,-6.5051,-6.5144,-6.5219,-6.537,-6.5403,-6.5487,-6.5478,-6.5575,-6.549,-6.5488,-6.5479,-6.5473,-6.5482,-6.5591,-6.5594,-6.5596,-6.5598,0,-6.4647,-6.4656,-6.474,-6.4829,-6.4898,-6.4967,-6.5033,-6.508,-6.5099,-6.5166,-6.5264,-6.5323,-6.5436,-6.5528,-6.5612,-6.5646,-6.5625,-6.5625,-6.565,-6.5652,-6.5643,-6.5648,-6.5358,-6.5618,-6.5616,-6.5614,-6.5613,-6.5612,-6.4805,-6.4883,-6.4949,-6.5043,-6.5094,-6.5157,-6.5232,-6.5264,-6.5347,-6.5442,-6.5442,-6.5549,-6.561,-6.5721,-6.5761,-6.5843,-6.5811,-6.5848,-6.5857,-6.5866,-6.5874,-6.563,-6.5858,-6.5857,-6.5857,-6.5856,-6.5856,0,-6.5028,-6.5069,-6.5156,-6.525,-6.5324,-6.53,-6.5371,-6.5434,-6.5529,-6.5589,-6.5664,-6.5775,-6.5864,-6.5904,-6.5991,-6.6048,-6.6041,-6.6071,-6.6067,-6.6075,-6.5897,-6.5867,-6.6076,-6.6076,-6.6076,-6.6076,-6.6075,-6.6075,-6.5152,-6.5282,-6.5298,-6.5452,-6.5492,-6.5599,-6.5641,-6.5698,-6.5746,-6.5872,-6.5947,-6.5973,-6.6025,-6.6115,-6.6195,-6.6204,-6.6236,-6.6271,-6.6276,-6.6109,-6.6087,-6.6066,-6.6037,-6.6278,-6.6278,-6.6446,-6.6447,-6.6449]}]]